Location: *
(48.4257°N, 26.0971°E)
Time: 10:08:23
(UTC+00:00)

Daily predictions for brighter satellites

Satellite Brightness Start Highest point End
(mag) Time Altitude Azimuth Time Altitude Azimuth Time Altitude Azimuth
Cosmos 332 Rocket 3.9 17:04:24 10° NNW 17:09:22 88° ENE 17:14:17 10° SSE
Cosmos 2333 Rocket 3.3 17:03:55 10° SW 17:09:27 51° NW 17:15:01 10° NNE
SL-16 R/B 3.1 17:04:49 10° SSE 17:09:29 27° ESE 17:14:08 10° NE
NOSS 2-1 (E) 3.0 17:06:31 10° SW 17:09:54 87° SE 17:13:41 10° NE
Meteor 2-21 Rocket 4.5 17:03:51 10° N 17:09:57 86° E 17:16:01 10° S
Meteor 2-16 Rocket 4.5 17:04:28 10° N 17:10:40 74° E 17:16:48 10° SSE
STARLINK-1225 4.4 17:07:59 10° SSW 17:11:35 32° SE 17:15:11 10° ENE
STARLINK-1144 4.4 17:08:55 10° WNW 17:12:56 46° N 17:16:56 10° E
Cosmos 1892 Rocket 3.6 17:09:05 10° N 17:13:34 65° ENE 17:18:01 10° SSE
STARLINK-1203 4.2 17:10:14 10° SSW 17:13:49 35° SE 17:17:26 10° ENE
CSL-04 Rocket 4.1 17:08:33 10° S 17:13:50 66° WSW 17:19:07 10° NNW
STARLINK-1072 3.6 17:10:43 10° WNW 17:14:44 81° NNE 17:18:43 10° ESE
ATLAS 2AS CENTAUR R/B 4.3 17:08:15 10° NW 17:14:50 28° NNE 17:21:06 10° ENE
BREEZE-M DEB (TANK) 4.0 17:09:43 10° SSW 17:16:02 27° SSE 17:18:50 10° E
STARLINK-1230 4.3 17:12:31 10° SSW 17:16:11 34° SE 17:19:51 10° ENE
ARGOS Delta rocket 4.2 17:11:21 10° SSE 17:16:22 60° ENE 17:21:39 10° N
STARLINK-1103 4.3 17:13:54 10° WNW 17:17:55 47° N 17:21:56 10° E
STARLINK-1096 3.5 17:15:09 10° WNW 17:19:10 85° NNE 17:23:11 10° ESE
Cosmos 1953 4.3 17:19:13 10° E 17:20:01 11° E 17:20:50 10° ENE
Cosmos 1626 2.8 17:17:16 10° N 17:20:42 34° ENE 17:24:06 10° SE
STARLINK-1243 4.2 17:17:07 10° SSW 17:20:50 37° SE 17:24:35 10° ENE
Okean 1-7 Rocket 3.6 17:16:49 10° N 17:21:13 66° ENE 17:25:34 10° SSE
STARLINK-1101 4.3 17:18:55 10° WNW 17:22:56 48° N 17:26:58 10° E
USA 186 2.3 17:19:43 10° SE 17:22:59 43° ENE 17:26:14 10° N
STARLINK-1234 2.8 17:20:21 10° SW 17:23:19 65° SSE 17:26:17 10° ENE
STARLINK-1079 3.5 17:19:37 10° WNW 17:23:39 89° NNE 17:27:36 10° ESE
STARLINK-1236 4.1 17:21:42 10° SSW 17:25:28 39° SE 17:29:16 10° ENE
H-2A R/B 2.1 17:20:59 10° SSE 17:26:14 63° ENE 17:31:22 10° N
SJ-11-01 4.3 17:22:24 10° SSE 17:27:06 84° ENE 17:31:51 10° NNW
STARLINK-1102 4.2 17:23:54 10° WNW 17:27:56 49° N 17:31:53 10° E
Cosmos 1745 Rocket 4.1 17:21:40 10° N 17:28:02 90° ENE 17:34:18 10° S
STARLINK-1116 3.5 17:24:05 10° WNW 17:28:06 87° SSW 17:31:54 11° ESE
USA 234 3.7 17:22:36 10° ENE 17:28:42 40° SE 17:34:45 10° SSW
NOSS 0 Rocket 4.2 17:25:01 10° SW 17:31:14 75° WNW 17:37:27 10° NNE
Cosmos 2297 3.8 17:26:49 10° NNW 17:32:29 65° ENE 17:38:08 10° SE
STARLINK-1111 4.2 17:28:53 10° WNW 17:32:56 50° NNE 17:36:40 12° E
ADEOS Rocket 3.7 17:26:51 10° N 17:33:43 66° WNW 17:39:51 10° SSW
STARLINK-1269 3.9 17:30:58 10° SW 17:34:49 45° SE 17:38:42 10° ENE
Meteor 2-5 Rocket 4.0 17:29:57 10° NNW 17:35:38 74° W 17:41:11 10° S
Cosmos 1544 Rocket 3.8 17:31:27 10° SSE 17:35:40 49° E 17:39:58 10° NNE
Aureole 2 Rocket 4.4 17:34:40 10° NNE 17:36:46 15° NE 17:38:18 12° E
STARLINK-1094 3.6 17:33:03 10° WNW 17:37:04 78° SSW 17:40:31 14° ESE
STARLINK-1073 4.1 17:33:52 10° WNW 17:37:56 51° NNE 17:41:27 13° E
ERBS 3.3 17:36:00 10° WSW 17:39:16 46° NNW 17:42:33 10° NE
Cosmos 2237 Rocket 2.4 17:33:51 10° SSW 17:39:28 77° WNW 17:45:08 10° NNE
STARLINK-1200 3.8 17:35:36 10° SW 17:39:29 49° SE 17:43:25 10° ENE
STARLINK-1117 3.6 17:37:33 10° WNW 17:41:34 74° SSW 17:44:51 15° SE
STARLINK-1121 4.1 17:38:52 10° WNW 17:42:56 53° NNE 17:46:14 15° E
Cosmos 1302 Rocket 4.1 17:38:50 10° NNW 17:44:05 62° ENE 17:49:19 10° SE
STARLINK-1192 3.7 17:40:11 10° SW 17:44:07 52° SE 17:48:00 10° ENE
Cosmos 2278 Rocket 3.8 17:39:29 10° NW 17:44:37 36° WSW 17:49:43 10° S
CZ-2C R/B 3.5 17:41:47 10° NE 17:46:02 25° E 17:50:14 10° SSE
STARLINK-1078 3.7 17:42:03 10° WNW 17:46:03 69° SSW 17:49:10 16° SE
Cosmos 1805 3.9 17:42:18 10° SSW 17:46:10 59° WNW 17:50:03 10° N
STARLINK-1106 4.0 17:43:50 10° WNW 17:47:55 55° NNE 17:51:00 17° E
Cosmos 1269 Rocket 4.0 17:43:04 10° S 17:48:17 65° ESE 17:53:33 10° NNE
STARLINK-1244 3.6 17:44:56 10° SW 17:48:54 56° SE 17:52:36 12° ENE
STARLINK-1108 3.8 17:46:34 10° WNW 17:50:33 65° SSW 17:53:31 17° SE
Meteor 1-24 Rocket 3.9 17:45:43 10° NNW 17:51:17 73° W 17:56:37 10° S
STARLINK-1201 2.9 17:48:55 10° WSW 17:52:10 84° SSE 17:54:56 14° ENE
STARLINK-1112 4.0 17:48:50 10° WNW 17:52:56 57° NNE 17:55:48 18° E
ARGOS 3.2 17:48:02 10° SSE 17:53:27 88° ENE 17:58:53 10° NNW
SeaSat 1 4.4 17:49:11 10° NNE 17:53:30 31° NW 17:57:48 10° WSW
STARLINK-1138 3.6 17:49:34 10° SW 17:53:34 60° SSE 17:57:07 13° ENE
STARLINK-1071 3.8 17:51:05 10° WNW 17:55:04 61° SSW 17:57:51 19° SE
STARLINK-1124 3.9 17:51:35 10° WNW 17:55:40 61° SSW 17:58:34 18° SE
SL-8 R/B 3.7 17:51:42 10° W 17:56:30 88° N 18:00:04 18° E
MOS 1 4.4 17:50:55 10° SSE 17:56:34 83° WSW 18:02:16 10° NNW
SL-24 R/B 4.5 17:53:06 10° NNE 17:57:34 41° E 18:01:29 10° SSE
STARLINK-1128 3.9 17:53:50 10° WNW 17:57:57 59° NNE 18:00:36 21° E
STARLINK-1066 4.2 17:55:14 10° WNW 17:58:08 33° SW 18:00:08 16° SSE
STARLINK-1143 3.5 17:54:19 10° SW 17:58:20 64° SSE 18:01:42 14° ENE
STARLINK-1081 4.2 17:55:43 10° WNW 17:58:33 33° SW 18:00:31 16° SSE
STARLINK-1209 2.9 17:56:02 10° WSW 17:58:56 67° NNW 18:01:00 17° ENE
STARLINK-1070 4.2 17:56:09 10° WNW 17:59:00 32° SW 18:00:56 17° SSE
STARLINK-1069 4.2 17:56:34 10° WNW 17:59:26 32° SW 18:01:24 17° SSE
STARLINK-1110 3.9 17:55:36 10° WNW 17:59:33 57° SW 18:02:11 20° SE
STARLINK-1228 2.9 17:56:54 10° WSW 17:59:45 66° NNW 18:01:47 17° ENE
STARLINK-1085 4.2 17:57:00 10° WNW 17:59:53 32° SW 18:01:50 17° SSE
STARLINK-1086 4.3 17:57:31 10° WNW 18:00:21 32° SW 18:02:15 17° SSE
STARLINK-1095 4.3 17:57:58 10° WNW 18:00:48 31° SW 18:02:40 17° SSE
Cosmos 2315 Rocket 4.0 17:54:46 10° S 18:01:00 69° E 18:07:21 10° NNE
STARLINK-1077 4.3 17:58:25 10° WNW 18:01:14 31° SW 18:03:06 17° SSE
STARLINK-1075 4.3 17:58:53 10° WNW 18:01:42 31° SW 18:03:32 17° SSE
STARLINK-1093 4.3 17:59:18 10° WNW 18:02:08 31° SW 18:04:01 17° SSE
STARLINK-1074 4.3 17:59:44 10° WNW 18:02:35 31° SW 18:04:26 17° SSE
STARLINK-1113 3.9 17:58:49 10° WNW 18:02:56 61° NNE 18:05:23 23° E
STARLINK-1087 4.3 18:00:14 10° WNW 18:03:02 30° SW 18:04:50 17° SSE
STARLINK-1088 4.3 18:00:42 10° W 18:03:29 30° SW 18:05:16 17° SSE
STARLINK-1115 4.4 18:01:07 10° WNW 18:03:56 30° SW 18:05:45 17° SSE
STARLINK-1076 4.4 18:01:33 10° W 18:04:22 30° SW 18:06:10 17° SSE
STARLINK-1092 4.4 18:02:02 10° W 18:04:50 30° SW 18:06:37 17° SSE
STARLINK-1080 4.4 18:02:31 10° W 18:05:17 29° SW 18:07:01 17° SSE
STARLINK-1090 4.4 18:02:57 10° W 18:05:43 29° SW 18:07:26 17° S
STARLINK-1089 4.4 18:03:25 10° W 18:06:11 28° SW 18:07:52 17° S
Cosmos 1470 2.7 18:02:28 10° S 18:06:18 63° E 18:10:10 10° NNE
MetOp-A 4.1 18:01:07 10° SSE 18:06:23 67° ENE 18:11:44 10° N
STARLINK-1107 4.4 18:03:53 10° W 18:06:37 28° SW 18:08:18 17° S
STARLINK-1119 3.8 18:03:47 10° WNW 18:07:55 64° NNE 18:10:09 25° E
SL-08 RB Rocket 3.7 18:03:26 10° SSE 18:07:57 89° ENE 18:12:33 10° NNW
STARLINK-1122 4.1 18:04:46 10° WNW 18:08:41 50° SW 18:10:59 22° SSE
STARLINK-1241 3.4 18:04:53 10° SW 18:08:53 74° SSE 18:11:48 18° ENE
ATLAS CENTAUR R/B 4.4 18:09:19 10° NW 18:10:33 11° NNW 18:11:46 10° N
Resurs 1-3 3.6 18:07:20 17° SSE 18:10:35 62° ENE 18:14:56 10° N
SJ-6B 3.2 18:07:30 10° S 18:11:32 67° WSW 18:15:40 10° NNW
IRIDIUM 104 4.4 18:06:34 10° N 18:11:43 55° E 18:15:55 15° SSE
STARLINK-1233 3.1 18:09:15 10° WSW 18:12:22 70° NNW 18:14:10 23° ENE
CZ-2C R/B 3.5 18:07:37 10° S 18:12:38 60° W 18:17:27 10° NNW
STARLINK-1212 3.1 18:09:42 10° WSW 18:12:49 70° NNW 18:14:36 23° ENE
STARLINK-1114 3.7 18:08:47 10° WNW 18:12:56 67° NNE 18:14:57 28° E
Cosmos 2369 Rocket 2.6 18:07:27 10° NNW 18:12:58 47° NE 18:16:01 24° ESE
STARLINK-1105 3.1 18:10:09 10° WSW 18:13:17 70° NNW 18:15:03 23° ENE
STARLINK-1126 4.2 18:09:24 10° WNW 18:13:17 47° SW 18:15:25 23° SSE
STARLINK-1239 3.4 18:09:27 10° WSW 18:13:27 79° SSE 18:16:12 20° ENE
STARLINK-1206 3.1 18:10:38 10° WSW 18:13:45 69° NNW 18:15:27 24° ENE
Cosmos 1758 3.2 18:09:44 10° S 18:13:48 71° E 18:17:54 10° NNE
ISS -3.4 18:10:34 10° WNW 18:13:54 57° NNE 18:15:13 32° ENE
STARLINK-1247 3.1 18:11:05 10° WSW 18:14:12 69° NNW 18:15:53 24° ENE
STARLINK-1227 3.1 18:11:30 10° WSW 18:14:37 68° NNW 18:16:20 24° ENE
STARLINK-1218 3.1 18:11:59 10° WSW 18:15:05 68° NNW 18:16:45 25° NE
STARLINK-1226 3.1 18:12:27 10° WSW 18:15:33 67° NNW 18:17:13 25° NE
STARLINK-1254 3.1 18:12:51 10° WSW 18:15:58 67° NNW 18:17:38 25° NE
STARLINK-1215 3.1 18:13:21 10° WSW 18:16:27 67° NNW 18:18:03 26° NE
STARLINK-1231 3.1 18:13:47 10° WSW 18:16:54 66° NNW 18:18:28 26° NE
Resurs 01 Rocket 1.8 18:15:30 25° SE 18:17:47 52° ENE 18:22:05 10° N
STARLINK-1232 3.2 18:14:42 10° WSW 18:17:48 65° NNW 18:19:21 26° NE
Meteor 2-15 Rocket 4.4 18:11:50 10° S 18:17:49 66° E 18:23:50 10° NNE
STARLINK-1082 4.3 18:13:58 10° WNW 18:17:49 44° SW 18:19:48 24° SSE
STARLINK-1130 (DARKSAT) 3.7 18:13:45 10° WNW 18:17:54 70° NNE 18:19:43 32° E
STARLINK-1240 3.4 18:14:02 10° WSW 18:18:03 83° SSE 18:20:37 21° ENE
STARLINK-1217 3.2 18:15:10 10° WSW 18:18:16 65° NNW 18:19:47 27° NE
STARLINK-1208 3.2 18:15:34 10° WSW 18:18:41 65° NNW 18:20:15 26° NE
STARLINK-1229 3.2 18:16:03 10° WSW 18:19:09 64° NNW 18:20:39 27° NE
STARLINK-1271 3.2 18:16:31 10° WSW 18:19:37 64° NNW 18:21:06 27° NE
STARLINK-1270 3.2 18:16:58 10° WSW 18:20:04 63° NNW 18:21:32 28° NE
STARLINK-1154 3.2 18:17:25 10° WSW 18:20:31 63° NNW 18:21:57 28° NE
IRIDIUM 114 4.3 18:15:41 10° N 18:20:54 66° E 18:25:04 16° SSE
STARLINK-1197 3.2 18:18:19 10° WSW 18:21:25 62° NNW 18:22:48 29° NE
STARLINK-1189 3.2 18:18:46 10° WSW 18:21:52 62° NNW 18:23:15 29° NE
STARLINK-1100 4.4 18:18:33 10° WNW 18:22:21 41° SW 18:24:11 25° SSE
STARLINK-1216 3.4 18:18:38 10° WSW 18:22:40 88° SSE 18:25:04 23° ENE
STARLINK-1187 3.4 18:19:39 10° W 18:22:45 57° NNW 18:24:10 28° NE
STARLINK-1188 3.3 18:19:40 10° WSW 18:22:46 61° NNW 18:24:07 29° NE
STARLINK-1084 3.6 18:18:43 10° WNW 18:22:53 73° NNE 18:24:30 35° E
STARLINK-1198 3.3 18:19:56 10° WSW 18:23:01 61° NNW 18:24:22 29° NE
STARLINK-1235 3.5 18:20:22 10° W 18:23:27 53° NNW 18:24:55 27° NE
Abrixas rocket 4.5 18:22:13 10° SSW 18:22:33 12° SSW 18:22:33 12° SSW
STARLINK-1199 3.3 18:21:37 10° WSW 18:24:44 60° NNW 18:26:02 30° NE
STARLINK-1191 3.3 18:22:05 10° WSW 18:25:11 60° NNW 18:26:29 30° NE
Meteor 1-21 Rocket 4.1 18:19:40 10° N 18:25:16 71° ENE 18:29:03 21° SSE
SPOT 3 Rocket 3.6 18:20:04 10° SSE 18:25:17 79° WSW 18:30:33 10° NNW
Cosmos 1709 Rocket 4.4 18:19:29 10° NNW 18:25:38 62° W 18:31:39 10° S
STARLINK-1210 3.3 18:22:31 10° WSW 18:25:38 59° NNW 18:26:54 31° NE
CZ-4C R/B 4.5 18:21:21 10° WNW 18:25:57 23° N 18:31:12 10° NE
STARLINK-1221 3.3 18:23:00 10° WSW 18:26:06 59° NNW 18:27:22 31° NE
STARLINK-1219 3.3 18:23:26 10° WSW 18:26:33 59° NNW 18:27:47 31° NE
STARLINK-1222 3.4 18:23:53 10° W 18:26:59 58° NNW 18:28:12 32° NE
STARLINK-67 3.7 18:24:34 10° W 18:27:00 36° NNW 18:27:37 30° NNE
STARLINK-1237 3.5 18:23:17 10° WSW 18:27:20 88° NNW 18:29:33 26° ENE
STARLINK-1211 3.4 18:24:20 10° W 18:27:26 58° NNW 18:28:38 32° NE
STARLINK-1098 3.6 18:23:42 10° WNW 18:27:51 77° NNE 18:29:16 40° ESE
STARLINK-1214 3.4 18:24:48 10° W 18:27:54 58° NNW 18:29:05 32° NE
STARLINK-1245 3.4 18:25:18 10° W 18:28:22 57° NNW 18:29:30 33° NE
STARLINK-1238 3.4 18:25:43 10° W 18:28:48 57° NNW 18:29:57 33° NE
Meteor 2-15 4.4 18:23:14 10° S 18:29:18 85° W 18:35:24 10° N
STARLINK-1205 3.4 18:26:39 10° W 18:29:44 56° NNW 18:30:48 34° NE
IRIDIUM 103 4.2 18:24:50 10° N 18:30:06 79° E 18:34:14 17° S
STARLINK-1204 3.4 18:27:05 10° W 18:30:10 56° NNW 18:31:13 34° NE
Cosmos 1726 2.7 18:32:03 38° ENE 18:32:03 38° ENE 18:35:09 10° NNE
STARLINK-1202 3.5 18:27:54 10° WSW 18:31:56 84° NNW 18:33:58 28° ENE
STARLINK-1123 3.6 18:28:42 10° WNW 18:32:52 81° NNE 18:34:05 45° ESE
MOS 1 Rocket 3.5 18:28:15 10° NNE 18:33:26 64° E 18:38:47 10° S
Cosmos 2228 4.0 18:34:16 29° ENE 18:34:16 29° ENE 18:37:20 10° NNE
Cosmos 1943 4.1 18:37:50 29° E 18:37:50 29° E 18:41:49 10° NE
STARLINK-1246 3.6 18:32:52 10° WSW 18:36:56 80° NNW 18:38:50 30° ENE
STARLINK-1097 3.5 18:33:39 10° WNW 18:37:49 85° NNE 18:38:50 50° ESE
Cosmos 2074 Rocket 3.9 18:31:51 10° N 18:38:08 71° ENE 18:42:01 25° SSE
Cosmos 1943 Rocket 2.1 18:33:02 10° NNW 18:38:37 86° ENE 18:41:18 32° SSE
Cosmos 292 Rocket 3.7 18:34:00 10° NNW 18:38:48 77° ENE 18:40:35 39° SE
STARLINK-1099 3.5 18:38:39 10° WNW 18:42:49 90° NNE 18:43:38 57° ESE
NOSS 3-3 (A) 4.2 18:39:43 10° S 18:45:09 42° ESE 18:51:13 10° NE
NOSS 3-3 (C) 4.2 18:39:51 10° S 18:45:16 41° ESE 18:51:18 10° NE
STARLINK-1224 3.7 18:41:52 10° WSW 18:45:53 73° NNW 18:47:23 37° NE
STARLINK-1104 3.5 18:43:38 10° WNW 18:47:48 86° SSW 18:48:25 63° SE
IRIDIUM 106 4.5 18:43:08 10° N 18:48:22 75° W 18:52:26 17° S
STARLINK-1225 3.7 18:46:35 10° WSW 18:50:37 69° NNW 18:51:55 40° NE
Meteor 2-10 4.0 18:47:39 22° S 18:51:06 70° E 18:56:37 10° NNE
Cosmos 1328 4.1 18:47:33 10° N 18:51:10 48° ENE 18:51:10 48° ENE
SPOT 1/Viking Rocket 4.0 18:51:28 39° E 18:52:16 42° ENE 18:57:10 10° N
STARLINK-1203 3.8 18:48:38 10° WSW 18:52:33 64° NNW 18:53:42 42° NE
STARLINK-1144 3.4 18:48:36 10° WNW 18:52:45 81° SSW 18:53:11 70° SE
SL-16 R/B 2.9 18:47:41 10° SW 18:53:14 56° WNW 18:58:50 10° NNE
Spot 2 Rocket 3.5 18:52:56 47° SE 18:54:14 64° ENE 18:59:19 10° N
STARLINK-1230 3.8 18:51:14 10° WSW 18:55:15 66° NNW 18:56:23 43° NE
Cosmos 1953 2.4 18:53:53 30° SSW 18:55:47 74° W 18:59:46 10° N
Cosmos 1437 3.8 18:54:19 10° N 18:56:21 38° N 18:56:21 38° N
STARLINK-1103 3.5 18:53:35 10° WNW 18:57:43 77° SSW 18:57:58 73° S
Cosmos 2084 Rocket 3.5 18:53:35 10° NW 18:58:04 75° SW 18:58:46 60° SSE
STARLINK-1234 4.2 18:55:48 10° W 18:58:25 36° NNW 18:58:25 36° NNW
STARLINK-1243 3.9 18:55:57 10° WSW 18:59:58 63° NNW 19:00:53 47° NE
Aureole 3 4.2 18:57:25 13° SSW 19:00:58 58° WNW 19:06:02 10° N
STARLINK-1101 3.6 18:58:35 10° WNW 19:02:43 72° SSW 19:02:46 72° SSW
STARLINK-1236 3.9 19:00:38 10° W 19:04:38 61° NNW 19:05:22 50° NNE
DMSP B5D2-2 4.4 18:59:51 10° N 19:05:01 64° WNW 19:10:10 10° SSW
IGS 5A 3.9 19:05:47 49° NE 19:05:47 49° NE 19:09:22 10° N
H-2A R/B 4.4 19:02:09 10° SW 19:06:03 21° W 19:09:55 10° NW
ATLAS 2AS CENTAUR R/B 3.2 19:00:02 10° NW 19:07:37 54° NE 19:10:15 37° E
STARLINK-1102 3.7 19:03:33 10° WNW 19:07:32 67° SW 19:07:32 67° SW
Cosmos 2341 Rocket 4.4 19:01:57 10° N 19:08:02 45° ENE 19:08:56 43° E
Terra 3.1 19:10:44 28° NE 19:10:44 28° NE 19:14:14 10° N
Aureole 2 Rocket 3.2 19:07:28 10° NNW 19:10:31 49° W 19:10:31 49° W
USA 234 3.3 19:05:30 10° NE 19:12:03 78° NNW 19:18:35 10° WSW
STARLINK-1111 3.9 19:08:32 10° WNW 19:12:19 60° WSW 19:12:19 60° WSW
STARLINK-1269 4.0 19:10:05 10° W 19:14:04 56° NNW 19:14:25 54° N
Cosmos 1603 3.5 19:12:01 31° S 19:14:47 72° ESE 19:20:24 10° NNE
Meteor 1-16 Rocket 4.0 19:12:24 34° SSW 19:14:48 88° WNW 19:20:18 10° NNE
Cosmos 2327 Rocket 4.4 19:10:02 10° N 19:16:20 87° W 19:18:40 42° S
Cosmos 1726 Rocket 3.9 19:18:06 56° NNE 19:18:06 56° NNE 19:21:42 10° NNE
STARLINK-1073 4.1 19:13:32 10° WNW 19:17:06 53° WSW 19:17:06 53° WSW
Cosmos 1703 3.6 19:14:21 10° NNW 19:17:46 64° NNW 19:17:46 64° NNW
STARLINK-1200 4.1 19:14:48 10° W 19:18:47 55° NNW 19:18:56 54° N
Cosmos 1825 Rocket 4.0 19:15:42 10° NNW 19:20:04 58° W 19:20:41 52° SW
MetOp-B 4.3 19:19:52 46° S 19:21:25 70° WSW 19:26:47 10° NNW
STARLINK-1121 4.3 19:18:31 10° WNW 19:21:53 47° WSW 19:21:53 47° WSW
STARLINK-1192 4.2 19:19:29 10° W 19:23:25 53° NNW 19:23:25 53° NNW
Aureole 1 Rocket 4.5 19:24:44 50° ESE 19:25:17 51° ESE 19:31:45 10° NNE
CZ-2C R/B 3.4 19:21:36 10° N 19:26:36 50° WNW 19:31:34 10° SW
COSMOS 2455 3.7 19:21:32 10° NNW 19:27:03 35° NE 19:28:01 33° ENE
STARLINK-1244 4.3 19:24:18 10° W 19:28:01 50° NNW 19:28:01 50° NNW
Meteor 1-11 4.2 19:23:06 10° NNW 19:28:56 90° ENE 19:29:47 67° SSE
Cosmos 1295 Rocket 4.4 19:24:49 10° N 19:31:07 84° E 19:32:15 62° SSE
STARLINK-1138 4.5 19:29:01 10° W 19:32:32 47° NW 19:32:32 47° NW
Cosmos 1953 Rocket 4.0 19:31:17 10° NNW 19:35:31 59° W 19:35:31 59° W
Cosmos 2218 Rocket 4.4 19:30:58 10° N 19:36:38 45° ENE 19:36:38 45° ENE
Cosmos 2251 Rocket 4.1 19:31:58 10° SW 19:37:14 57° WNW 19:42:34 10° NNE
SL-8 R/B 4.2 19:34:17 10° W 19:38:02 52° WSW 19:38:02 52° WSW
Cosmos 1461 4.5 19:35:23 10° NNW 19:38:46 30° NNE 19:38:46 30° NNE
Cosmos 1656 Rocket 3.5 19:35:20 10° NNW 19:41:03 85° WSW 19:41:14 83° SSW
Cosmos 1606 Rocket 4.3 19:43:16 49° W 19:43:25 49° WNW 19:47:46 10° N
Cosmos 2181 Rocket 4.3 19:48:22 50° ENE 19:48:22 50° ENE 19:53:33 10° NNE
ERS-1 Rocket 3.1 19:48:48 72° NNW 19:48:48 72° NNW 19:53:21 10° NNW
Cosmos 2154 Rocket 4.4 19:43:28 10° NNW 19:49:42 58° W 19:51:32 43° SW
ISS -0.8 19:47:29 10° WNW 19:48:11 15° W 19:48:11 15° W
Resurs 01 Rocket 3.9 19:53:04 16° WSW 19:54:35 19° W 19:57:43 10° NW
SPOT 5 3.6 19:56:05 45° NNW 19:56:05 45° NNW 19:59:07 10° NNW
Cosmos 2369 Rocket 3.4 19:51:47 10° NW 19:56:50 33° WSW 19:57:50 31° SW
SL-8 Rocket 3.9 20:05:54 10° N 20:11:56 83° NNW 20:11:56 83° NNW
CZ-4C R/B 4.4 20:11:30 10° NW 20:16:45 25° NNE 20:21:24 14° ENE
Cosmos 2366 rocket 4.1 20:13:12 10° N 20:18:37 70° N 20:18:37 70° N
Cosmos 1943 3.9 20:19:28 43° W 20:20:44 51° NW 20:26:18 10° NNE
Cosmos 1943 Rocket 4.3 20:18:19 10° WNW 20:21:36 16° W 20:22:51 15° WSW
NOSS 3-4 (A) 3.8 20:19:05 10° NW 20:25:57 76° WSW 20:25:57 76° WSW
NOSS 3-4 (C) 3.8 20:19:10 10° NW 20:26:03 77° WSW 20:26:03 77° WSW
Mayak 1.5 20:29:48 10° NNE 20:30:21 13° NNE 20:30:21 13° NNE
Cosmos 1697 Rocket 4.3 20:40:17 10° NNW 20:44:20 26° NNE 20:44:20 26° NNE
Terra 3.6 20:49:36 28° NW 20:49:36 28° NW 20:52:16 10° NNW
USA 234 4.1 20:48:30 10° ENE 20:54:39 45° N 21:00:48 10° W
ATLAS 2AS CENTAUR R/B 3.4 20:51:25 10° NW 20:57:41 46° W 20:57:41 46° W
Cosmos 1980 Rocket 4.0 21:05:24 10° N 21:09:09 24° NNE 21:09:09 24° NNE
COSMOS 2455 4.0 21:07:23 10° NW 21:11:09 38° WNW 21:11:09 38° WNW
BREEZE M DEB (TANK) 4.4 21:44:06 89° NE 21:44:06 89° NE 22:07:32 10° E
ATLAS 5 CENTAUR R/B 4.5 21:57:41 14° NNE 21:57:41 14° NNE 21:58:29 10° NE
CZ-4C R/B 3.4 22:00:07 10° NW 22:06:33 52° NNE 22:06:33 52° NNE
Mayak 1.9 22:06:43 10° NNW 22:06:54 11° NNW 22:06:54 11° NNW
Cosmos 2344 4.3 22:08:21 10° NW 22:17:41 77° NE 22:20:04 61° ESE
SL-16 R/B 3.9 22:25:42 10° NNW 22:29:37 28° NNE 22:29:37 28° NNE
USA 234 4.1 22:30:49 10° E 22:36:57 45° N 22:43:07 10° WNW
Cosmos 2322 Rocket 3.8 22:40:41 10° NNW 22:44:37 30° NNE 22:44:37 30° NNE
Cosmos 2360 Rocket 4.3 22:42:27 10° N 22:46:41 21° NE 22:47:51 20° ENE
Cosmos 1980 Rocket 4.1 22:48:55 10° NNW 22:50:54 23° NNW 22:50:54 23° NNW
Cosmos 2082 Rocket 3.6 23:15:19 35° NNE 23:15:19 35° NNE 23:18:35 10° NNE
SL-16 R/B 3.2 23:21:37 51° NNE 23:21:37 51° NNE 23:26:41 10° N
ATLAS 5 CENTAUR R/B 4.2 23:39:11 17° NNW 23:39:45 17° NNW 23:43:12 10° NNE
USA 267 4.1 23:37:30 10° ENE 23:42:05 38° E 23:42:05 38° E
Cosmos 1833 Rocket 4.2 23:45:10 29° NNW 23:45:10 29° NNW 23:49:02 10° NNE
Cosmos 2219 Rocket 4.3 23:46:57 10° N 23:51:23 23° NE 23:55:47 10° E
